Location: ??????
(41.3794°N, 22.5014°E)
Time: 08:09:04
(UTC+00:00)

Cosmos 1656 Rocket - Pass Details

Date: 30 November 2020
Orbit: 796 x 846 km, 71.1° (Epoch: 17 January)

Event Time Altitude Azimuth Distance (km) Brightness Sun altitude
Rises 17:26:42 0° 334° (NNW) 3,400 7.1 -26.6°
Reaches altitude 10° 17:29:10 10° 334° (NNW) 2,456 6.3 -27.1°
Maximum altitude 17:34:47 78° 249° (WSW) 852 3.7 -28.2°
Enters shadow 17:35:39 63° 185° (S) 920 3.8 -28.3°
